Location: Newark
(46.1333°N, 13.0333°E)
Time: 23:02:20
(UTC+00:00)

ISS - Visible Passes

Search period start: 12 November 2019 00:00
Search period end: 22 November 2019 00:00
Orbit: 412 x 421 km, 51.6° (Epoch: 13 November)

Date Brightness Start Highest point End Pass type
(mag) Time Alt. Az. Time Alt. Az. Time Alt. Az.
12 Nov -2.4 04:01:36 31° S 04:01:36 31° S 04:03:45 10° SE visible
13 Nov -0.4 03:15:36 10° SE 03:15:36 10° SE 03:15:36 10° SE visible
13 Nov -1.3 04:48:32 10° SW 04:48:32 10° SW 04:49:05 10° SW visible
20 Nov -1.0 17:28:43 10° S 17:28:51 10° S 17:28:51 10° S visible
21 Nov -0.7 18:15:19 10° SW 18:15:39 12° SW 18:15:39 12° SW visible
